Location: Devore Heights
(34.2372°N, 117.4156°W)
Time: 08:44:05
(UTC+00:00)

Courier 1B Rocket - All Passes

Search period start: 19 September 2024 00:00
Search period end: 29 September 2024 00:00
Orbit: 920 x 1201 km, 28.2° (Epoch: 19 September)

Date Brightness Start Highest point End Pass type
(mag) Time Alt. Az. Time Alt. Az. Time Alt. Az.
19 Sep - 01:44:16 10° W 01:50:41 43° SSW 01:57:33 10° SE daylight
19 Sep - 03:38:25 10° WSW 03:43:46 22° SSW 03:49:21 10° SSE visible
19 Sep - 19:10:42 10° SSE 19:10:55 10° SSE 19:11:07 10° SSE daylight
19 Sep - 20:58:07 10° SW 21:03:27 29° SSE 21:08:59 10° ESE daylight
19 Sep - 22:50:13 10° WSW 22:56:22 49° S 23:02:55 10° E daylight
20 Sep - 00:43:11 10° W 00:49:32 48° S 00:56:21 10° ESE daylight
20 Sep - 02:36:50 10° WSW 02:42:39 29° SSW 02:48:47 10° SE visible
20 Sep - 04:34:23 10° SW 04:35:34 10° SSW 04:36:46 10° SSW visible
20 Sep - 19:57:53 10° SSW 20:02:33 22° SSE 20:07:19 10° ESE daylight
20 Sep - 21:49:23 10° WSW 21:55:19 44° S 22:01:33 10° E daylight
20 Sep - 23:42:10 10° WSW 23:48:24 51° S 23:55:05 10° ESE daylight
21 Sep - 01:35:30 10° W 01:41:32 35° SSW 01:47:58 10° SE daylight
21 Sep - 03:30:34 10° WSW 03:34:29 15° SSW 03:38:32 10° S visible
21 Sep - 18:58:05 10° S 19:01:40 16° SSE 19:05:17 10° ESE daylight
21 Sep - 20:48:41 10° SW 20:54:20 37° SSE 21:00:10 10° E daylight
21 Sep - 22:41:13 10° WSW 22:47:20 51° S 22:53:48 10° ESE daylight
22 Sep - 00:34:20 10° W 00:40:26 41° SSW 00:46:57 10° SE daylight
22 Sep - 02:28:30 10° WSW 02:33:25 21° SSW 02:38:35 10° SSE visible
22 Sep - 17:59:54 10° SSE 18:00:48 10° SSE 18:01:43 10° SE daylight
22 Sep - 19:48:07 10° SW 19:53:24 29° SSE 19:58:45 10° ESE daylight
22 Sep - 21:40:17 10° WSW 21:46:16 48° S 21:52:31 10° ESE daylight
22 Sep - 23:33:16 10° W 23:39:21 46° S 23:45:49 10° ESE daylight
23 Sep - 01:26:55 10° WSW 01:32:22 27° SSW 01:38:07 10° SE daylight
23 Sep - 18:47:46 10° SSW 18:52:30 22° SSE 18:57:12 10° ESE daylight
23 Sep - 20:39:25 10° WSW 20:45:16 43° S 20:51:15 10° E daylight
23 Sep - 22:32:15 10° WSW 22:38:17 50° S 22:44:38 10° ESE daylight
24 Sep - 00:25:37 10° W 00:31:19 33° SSW 00:37:22 10° SE daylight
24 Sep - 02:20:50 10° WSW 02:24:11 14° SSW 02:27:37 10° S visible
24 Sep - 17:47:50 10° S 17:51:36 16° SSE 17:55:19 10° ESE daylight
24 Sep - 19:38:38 10° SW 19:44:18 37° SSE 19:49:59 10° E daylight
24 Sep - 21:31:15 10° WSW 21:37:15 50° S 21:43:27 10° ESE daylight
24 Sep - 23:24:27 10° W 23:30:17 39° SSW 23:36:26 10° SE daylight
25 Sep - 01:18:40 10° WSW 01:23:10 19° SSW 01:27:52 10° SSE daylight
25 Sep - 16:48:59 10° SSE 16:50:42 11° SSE 16:52:23 10° SE daylight
25 Sep - 18:37:58 10° SW 18:43:21 30° SSE 18:48:40 10° ESE daylight
25 Sep - 20:30:17 10° WSW 20:36:15 48° S 20:42:16 10° ESE daylight
25 Sep - 22:23:21 10° W 22:29:16 45° S 22:35:25 10° ESE daylight
26 Sep - 00:17:04 10° WSW 00:22:10 25° SSW 00:27:31 10° SSE daylight
26 Sep - 17:37:30 10° SSW 17:42:26 23° SSE 17:47:14 10° ESE daylight
26 Sep - 19:29:20 10° WSW 19:35:15 43° S 19:41:07 10° E daylight
26 Sep - 21:22:17 10° WSW 21:28:15 49° S 21:34:21 10° ESE daylight
26 Sep - 23:15:44 10° WSW 23:21:12 31° SSW 23:26:53 10° SE daylight
27 Sep - 01:11:16 10° SW 01:13:58 13° SSW 01:16:42 10° S daylight
27 Sep - 16:37:23 10° SSW 16:41:29 17° SSE 16:45:30 10° ESE daylight
27 Sep - 18:28:27 10° SW 18:34:16 37° SSE 18:39:57 10° E daylight
27 Sep - 20:21:14 10° WSW 20:27:15 50° S 20:33:16 10° ESE daylight
27 Sep - 22:14:31 10° W 22:20:13 38° SSW 22:26:05 10° SE daylight
28 Sep - 00:08:53 10° WSW 00:13:00 18° SSW 00:17:15 10° SSE daylight
28 Sep - 15:38:03 10° S 15:40:32 12° SSE 15:42:58 10° SE daylight
28 Sep - 17:27:40 10° SW 17:33:18 31° SSE 17:38:44 10° ESE daylight
28 Sep - 19:20:09 10° WSW 19:26:14 48° S 19:32:11 10° ESE daylight
28 Sep - 21:13:21 10° W 21:19:14 44° S 21:25:10 10° ESE daylight
28 Sep - 23:07:12 10° WSW 23:12:04 24° SSW 23:17:04 10° SSE daylight
